TGW250 VHHH-VTBS

Flight info

Callsign TGW250
Flight time 2h 33m
Altitude 34000
Route PECAN V10 SIKOU/K0872S1040 A202 ASSAD/K0863F360 A202 VILAO/N0466F360 A202 RAMEI W42 PAKRI Y13 RUKSA DCT EASTE EASTE1C
Aircraft A320/M-SDE3FGHIRWY/LB1

Departure

Time 2026-05-05 05:29
Airport Hong Kong International Airport (VHHH)

Arrival

Time 2026-05-05 08:03
Airport Suvarnabhumi Airport (VTBS)
Time Latitude Longitude Altitude Speed Heading
2026-05-05 04:51 22.30810 113.91751 37 ft 0 kts 71°
2026-05-05 05:15 22.30810 113.91749 37 ft 2 kts 71°
2026-05-05 05:16 22.30802 113.91723 36 ft 4 kts 71°
2026-05-05 05:16 22.30793 113.91696 35 ft 3 kts 71°
2026-05-05 05:16 22.30784 113.91675 36 ft 4 kts 40°
2026-05-05 05:16 22.30761 113.91666 35 ft 4 kts 351°
2026-05-05 05:17 22.30743 113.91670 35 ft 0 kts 340°
2026-05-05 05:20 22.30751 113.91667 36 ft 2 kts 340°
2026-05-05 05:21 22.30768 113.91661 33 ft 3 kts 340°
2026-05-05 05:21 22.30794 113.91650 37 ft 5 kts 340°
2026-05-05 05:21 22.30831 113.91636 37 ft 6 kts 340°
2026-05-05 05:21 22.30890 113.91614 37 ft 15 kts 341°
2026-05-05 05:22 22.31028 113.91564 37 ft 27 kts 342°
2026-05-05 05:22 22.31243 113.91483 37 ft 37 kts 340°
2026-05-05 05:22 22.31318 113.91360 37 ft 19 kts 224°
2026-05-05 05:22 22.31281 113.91233 37 ft 19 kts 249°
2026-05-05 05:23 22.31235 113.91098 37 ft 20 kts 252°
2026-05-05 05:23 22.31188 113.90952 37 ft 21 kts 249°
2026-05-05 05:23 22.31139 113.90798 35 ft 22 kts 253°
2026-05-05 05:23 22.31087 113.90637 37 ft 23 kts 250°
2026-05-05 05:24 22.31030 113.90466 37 ft 25 kts 250°
2026-05-05 05:24 22.30972 113.90285 36 ft 26 kts 252°
2026-05-05 05:24 22.30907 113.90095 37 ft 28 kts 249°
2026-05-05 05:24 22.30848 113.89898 37 ft 25 kts 252°
2026-05-05 05:25 22.30892 113.89827 37 ft 8 kts 16°
2026-05-05 05:25 22.30933 113.89865 35 ft 9 kts 55°
2026-05-05 05:25 22.30983 113.89893 36 ft 9 kts 351°
2026-05-05 05:25 22.30998 113.89887 37 ft 0 kts 340°
2026-05-05 05:26 22.31003 113.89885 37 ft 1 kts 340°
2026-05-05 05:27 22.31011 113.89882 37 ft 2 kts 340°
2026-05-05 05:27 22.31024 113.89877 37 ft 2 kts 340°
2026-05-05 05:27 22.31115 113.89874 37 ft 15 kts 41°
2026-05-05 05:28 22.31160 113.89996 37 ft 19 kts 72°
2026-05-05 05:28 22.31221 113.90188 34 ft 44 kts 71°
2026-05-05 05:28 22.31392 113.90716 36 ft 102 kts 71°
2026-05-05 05:28 22.31674 113.91592 38 ft 143 kts 70°
2026-05-05 05:29 22.32030 113.92684 111 ft 170 kts 70°
2026-05-05 05:29 22.32431 113.93846 749 ft 162 kts 69°
2026-05-05 05:29 22.32848 113.94969 1332 ft 161 kts 69°
2026-05-05 05:29 22.33283 113.96075 1893 ft 160 kts 68°
2026-05-05 05:30 22.33788 113.97190 2208 ft 173 kts 61°
2026-05-05 05:30 22.34453 113.98360 2407 ft 194 kts 60°
2026-05-05 05:30 22.35212 113.99638 2666 ft 207 kts 58°
2026-05-05 05:30 22.36011 114.00953 3077 ft 211 kts 58°
2026-05-05 05:31 22.36832 114.02288 3501 ft 215 kts 57°
2026-05-05 05:31 22.37674 114.03645 3955 ft 220 kts 57°
2026-05-05 05:31 22.38534 114.05024 4477 ft 223 kts 57°
2026-05-05 05:31 22.39380 114.06447 4972 ft 227 kts 65°
2026-05-05 05:32 22.39844 114.08064 5494 ft 226 kts 85°
2026-05-05 05:32 22.39787 114.09759 5956 ft 227 kts 105°
2026-05-05 05:32 22.39245 114.11354 6447 ft 227 kts 117°
2026-05-05 05:32 22.38601 114.12923 6918 ft 230 kts 117°
2026-05-05 05:33 22.37954 114.14521 7407 ft 233 kts 117°
2026-05-05 05:33 22.37302 114.16134 7891 ft 236 kts 117°
2026-05-05 05:33 22.36890 114.17155 8194 ft 238 kts 117°
2026-05-05 05:33 22.36585 114.17911 8416 ft 239 kts 117°
2026-05-05 05:34 22.35910 114.19583 8873 ft 249 kts 117°
2026-05-05 05:34 22.35180 114.21381 9093 ft 273 kts 116°
2026-05-05 05:34 22.34383 114.23340 9372 ft 295 kts 117°
2026-05-05 05:34 22.33343 114.25285 9930 ft 301 kts 129°
2026-05-05 05:35 22.31931 114.27014 10264 ft 316 kts 141°
2026-05-05 05:35 22.30104 114.28438 10389 ft 334 kts 155°
2026-05-05 05:35 22.27942 114.29533 10507 ft 354 kts 159°
2026-05-05 05:35 22.25636 114.30648 10655 ft 371 kts 159°
2026-05-05 05:36 22.23334 114.31992 11083 ft 382 kts 148°
2026-05-05 05:36 22.21202 114.33682 11639 ft 387 kts 146°
2026-05-05 05:36 22.18997 114.35436 12204 ft 390 kts 147°
2026-05-05 05:36 22.16795 114.37175 12767 ft 394 kts 147°
2026-05-05 05:37 22.14573 114.38924 13309 ft 397 kts 147°
2026-05-05 05:37 22.12204 114.40438 13790 ft 396 kts 160°
2026-05-05 05:37 22.09626 114.41293 14221 ft 393 kts 174°
2026-05-05 05:37 22.06920 114.41463 14666 ft 390 kts 187°
2026-05-05 05:38 22.04269 114.40945 15116 ft 387 kts 200°
2026-05-05 05:38 22.01815 114.39783 15563 ft 385 kts 213°
2026-05-05 05:38 21.99582 114.38185 16006 ft 386 kts 217°
2026-05-05 05:38 21.97357 114.36561 16459 ft 388 kts 217°
2026-05-05 05:39 21.95121 114.34908 16922 ft 390 kts 218°
2026-05-05 05:39 21.92940 114.33157 17381 ft 392 kts 220°
2026-05-05 05:39 21.90798 114.31328 17842 ft 394 kts 221°
2026-05-05 05:39 21.88668 114.29461 18282 ft 396 kts 221°
2026-05-05 05:40 21.86440 114.27702 18663 ft 400 kts 214°
2026-05-05 05:40 21.84041 114.26162 19035 ft 403 kts 214°
2026-05-05 05:40 21.81625 114.24625 19401 ft 405 kts 214°
2026-05-05 05:40 21.79188 114.23084 19744 ft 407 kts 214°
2026-05-05 05:41 21.77567 114.22060 19989 ft 409 kts 214°
2026-05-05 05:41 21.75107 114.20505 20349 ft 411 kts 214°
2026-05-05 05:41 21.72630 114.18936 20694 ft 414 kts 214°
2026-05-05 05:41 21.70143 114.17360 21039 ft 416 kts 214°
2026-05-05 05:42 21.67643 114.15778 21369 ft 419 kts 214°
2026-05-05 05:42 21.65125 114.14184 21689 ft 421 kts 214°
2026-05-05 05:42 21.62596 114.12584 22004 ft 423 kts 214°
2026-05-05 05:42 21.60052 114.10974 22312 ft 425 kts 214°
2026-05-05 05:43 21.57495 114.09353 22612 ft 427 kts 215°
2026-05-05 05:43 21.54933 114.07729 22919 ft 429 kts 215°
2026-05-05 05:43 21.52350 114.06093 23201 ft 431 kts 215°
2026-05-05 05:43 21.49758 114.04456 23490 ft 434 kts 215°
2026-05-05 05:44 21.47184 114.02834 23735 ft 435 kts 215°
2026-05-05 05:44 21.44568 114.01187 23978 ft 437 kts 215°
2026-05-05 05:44 21.41937 113.99532 24225 ft 438 kts 215°
2026-05-05 05:44 21.39304 113.97876 24461 ft 440 kts 215°
2026-05-05 05:45 21.36656 113.96211 24707 ft 441 kts 215°
2026-05-05 05:45 21.34004 113.94542 25046 ft 440 kts 214°
2026-05-05 05:45 21.31370 113.92882 25387 ft 439 kts 215°
2026-05-05 05:45 21.28738 113.91224 25738 ft 438 kts 215°
2026-05-05 05:46 21.26111 113.89570 26096 ft 438 kts 214°
2026-05-05 05:46 21.23486 113.87919 26476 ft 437 kts 214°
2026-05-05 05:46 21.20863 113.86270 26829 ft 437 kts 214°
2026-05-05 05:46 21.18245 113.84626 27199 ft 436 kts 214°
2026-05-05 05:47 21.15627 113.82984 27622 ft 435 kts 214°
2026-05-05 05:47 21.13027 113.81332 28029 ft 433 kts 218°
2026-05-05 05:47 21.10687 113.79351 28413 ft 426 kts 228°
2026-05-05 05:47 21.08796 113.76995 28796 ft 421 kts 238°
2026-05-05 05:48 21.07341 113.74293 29213 ft 417 kts 248°
2026-05-05 05:48 21.06325 113.71402 29603 ft 415 kts 252°
2026-05-05 05:48 21.05385 113.68486 30005 ft 414 kts 252°
2026-05-05 05:48 21.04441 113.65577 30360 ft 413 kts 252°
2026-05-05 05:49 21.03501 113.62678 30726 ft 412 kts 252°
2026-05-05 05:49 21.02559 113.59778 31067 ft 412 kts 252°
2026-05-05 05:49 21.01620 113.56888 31405 ft 411 kts 252°
2026-05-05 05:49 21.00682 113.54002 31745 ft 410 kts 252°
2026-05-05 05:50 20.99748 113.51122 32109 ft 410 kts 252°
2026-05-05 05:50 20.98812 113.48241 32463 ft 409 kts 253°
2026-05-05 05:50 20.97878 113.45370 32815 ft 408 kts 253°
2026-05-05 05:50 20.96944 113.42505 33171 ft 408 kts 253°
2026-05-05 05:51 20.96012 113.39643 33516 ft 407 kts 253°
2026-05-05 05:51 20.95081 113.36788 33845 ft 407 kts 253°
2026-05-05 05:51 20.94149 113.33926 33960 ft 409 kts 253°
2026-05-05 05:51 20.93206 113.31030 33976 ft 416 kts 253°
2026-05-05 05:52 20.91271 113.25093 33972 ft 428 kts 253°
2026-05-05 05:52 20.89306 113.19090 33972 ft 431 kts 253°
2026-05-05 05:53 20.87317 113.13031 33968 ft 432 kts 253°
2026-05-05 05:53 20.85326 113.06975 33967 ft 432 kts 253°
2026-05-05 05:54 20.83330 113.00911 33969 ft 432 kts 253°
2026-05-05 05:54 20.81335 112.94841 33962 ft 433 kts 253°
2026-05-05 05:55 20.79341 112.88772 33967 ft 433 kts 253°
2026-05-05 05:55 20.77346 112.82700 33964 ft 433 kts 253°
2026-05-05 05:56 20.75336 112.76628 33963 ft 433 kts 253°
2026-05-05 05:56 20.73330 112.70555 33958 ft 434 kts 253°
2026-05-05 05:57 20.71328 112.64475 33952 ft 434 kts 253°
2026-05-05 05:57 20.69325 112.58434 33952 ft 434 kts 253°
2026-05-05 05:58 20.67300 112.52363 33947 ft 434 kts 253°
2026-05-05 05:58 20.65276 112.46282 33948 ft 435 kts 253°
2026-05-05 05:59 20.63257 112.40198 33945 ft 435 kts 253°
2026-05-05 05:59 20.61227 112.34108 33951 ft 435 kts 253°
2026-05-05 06:00 20.59196 112.28024 33951 ft 436 kts 253°
2026-05-05 06:00 20.57165 112.21929 33954 ft 436 kts 254°
2026-05-05 06:01 20.56273 112.15622 33949 ft 430 kts 274°
2026-05-05 06:01 20.57591 112.09456 33951 ft 428 kts 294°
2026-05-05 06:02 20.60161 112.03760 33950 ft 429 kts 295°
2026-05-05 06:02 20.62761 111.98024 33953 ft 429 kts 295°
2026-05-05 06:03 20.65369 111.92242 33960 ft 429 kts 295°
2026-05-05 06:03 20.67938 111.86536 33967 ft 429 kts 295°
2026-05-05 06:04 20.70528 111.80794 33976 ft 429 kts 295°
2026-05-05 06:04 20.73110 111.75053 33978 ft 429 kts 295°
2026-05-05 06:05 20.75686 111.69311 33982 ft 428 kts 295°
2026-05-05 06:05 20.78257 111.63576 33981 ft 428 kts 295°
2026-05-05 06:06 20.80825 111.57844 33980 ft 427 kts 294°
2026-05-05 06:06 20.82864 111.51916 33977 ft 426 kts 279°
2026-05-05 06:07 20.82740 111.45613 33972 ft 429 kts 259°
2026-05-05 06:07 20.80830 111.39559 33964 ft 431 kts 253°
2026-05-05 06:08 20.78816 111.33566 33954 ft 431 kts 253°
2026-05-05 06:08 20.76801 111.27529 33953 ft 431 kts 253°
2026-05-05 06:09 20.74767 111.21490 33955 ft 432 kts 253°
2026-05-05 06:09 20.72732 111.15449 33953 ft 432 kts 253°
2026-05-05 06:10 20.70699 111.09407 33948 ft 432 kts 253°
2026-05-05 06:10 20.68660 111.03361 33950 ft 432 kts 253°
2026-05-05 06:11 20.66614 110.97318 33950 ft 433 kts 253°
2026-05-05 06:11 20.64563 110.91276 33951 ft 433 kts 253°
2026-05-05 06:12 20.62526 110.85231 33951 ft 433 kts 253°
2026-05-05 06:12 20.60517 110.79216 33953 ft 433 kts 253°
2026-05-05 06:13 20.58489 110.73160 33949 ft 433 kts 253°
2026-05-05 06:13 20.56452 110.67111 33951 ft 433 kts 253°
2026-05-05 06:14 20.54409 110.61064 33947 ft 433 kts 253°
2026-05-05 06:14 20.52364 110.55015 33946 ft 433 kts 253°
2026-05-05 06:15 20.49984 110.49098 33942 ft 439 kts 242°
2026-05-05 06:15 20.46232 110.43899 33939 ft 444 kts 235°
2026-05-05 06:16 20.42324 110.38797 33941 ft 444 kts 235°
2026-05-05 06:16 20.38422 110.33679 33936 ft 445 kts 235°
2026-05-05 06:17 20.34510 110.28563 33932 ft 445 kts 235°
2026-05-05 06:17 20.30615 110.23479 33936 ft 446 kts 235°
2026-05-05 06:18 20.26721 110.18338 33932 ft 446 kts 236°
2026-05-05 06:18 20.22854 110.13156 33937 ft 447 kts 236°
2026-05-05 06:19 20.18992 110.07976 33948 ft 447 kts 236°
2026-05-05 06:19 20.15109 110.02807 33939 ft 447 kts 236°
2026-05-05 06:20 20.11223 109.97639 33934 ft 447 kts 236°
2026-05-05 06:20 20.07335 109.92465 33931 ft 448 kts 236°
2026-05-05 06:21 20.03448 109.87288 33926 ft 448 kts 236°
2026-05-05 06:21 19.99555 109.82118 33937 ft 448 kts 236°
2026-05-05 06:22 19.95655 109.76955 33938 ft 448 kts 236°
2026-05-05 06:22 19.91751 109.71793 33932 ft 448 kts 236°
2026-05-05 06:23 19.87876 109.66661 33928 ft 448 kts 236°
2026-05-05 06:23 19.83976 109.61499 33934 ft 448 kts 236°
2026-05-05 06:24 19.80073 109.56346 33942 ft 448 kts 236°
2026-05-05 06:24 19.76170 109.51189 33942 ft 448 kts 236°
2026-05-05 06:25 19.72271 109.46046 33942 ft 447 kts 236°
2026-05-05 06:25 19.68376 109.40909 33950 ft 447 kts 236°
2026-05-05 06:26 19.64482 109.35777 33947 ft 446 kts 236°
2026-05-05 06:26 19.60585 109.30651 33949 ft 446 kts 236°
2026-05-05 06:27 19.54742 109.22971 33946 ft 445 kts 236°
2026-05-05 06:28 19.50846 109.17862 33949 ft 445 kts 236°
2026-05-05 06:28 19.46936 109.12775 33947 ft 445 kts 236°
2026-05-05 06:29 19.43008 109.07699 33948 ft 445 kts 236°
2026-05-05 06:29 19.39083 109.02629 33946 ft 445 kts 236°
2026-05-05 06:30 19.35167 108.97551 33942 ft 445 kts 236°
2026-05-05 06:30 19.31254 108.92479 33942 ft 445 kts 236°
2026-05-05 06:31 19.27330 108.87408 33935 ft 445 kts 235°
2026-05-05 06:31 19.23402 108.82338 33932 ft 446 kts 235°
2026-05-05 06:32 19.19492 108.77302 33929 ft 446 kts 235°
2026-05-05 06:32 19.15530 108.72192 33924 ft 446 kts 235°
2026-05-05 06:33 19.11619 108.67144 33917 ft 447 kts 235°
2026-05-05 06:33 19.07677 108.62058 33921 ft 447 kts 235°
2026-05-05 06:34 19.03724 108.56968 33923 ft 448 kts 234°
2026-05-05 06:34 18.99763 108.51876 33922 ft 449 kts 234°
2026-05-05 06:35 18.95787 108.46777 33920 ft 450 kts 234°
2026-05-05 06:35 18.92479 108.42541 33920 ft 450 kts 234°
2026-05-05 06:36 18.88490 108.37424 33917 ft 451 kts 234°
2026-05-05 06:36 18.84502 108.32307 33922 ft 452 kts 234°
2026-05-05 06:37 18.80503 108.27186 33923 ft 452 kts 234°
2026-05-05 06:37 18.76496 108.22054 33921 ft 453 kts 234°
2026-05-05 06:38 18.72481 108.16925 33922 ft 454 kts 234°
2026-05-05 06:38 18.68485 108.11823 33923 ft 454 kts 234°
2026-05-05 06:39 18.64458 108.06679 33933 ft 455 kts 234°
2026-05-05 06:39 18.60423 108.01530 33932 ft 455 kts 234°
2026-05-05 06:40 18.56378 107.96388 33936 ft 455 kts 234°
2026-05-05 06:40 18.52339 107.91253 33938 ft 455 kts 234°
2026-05-05 06:41 18.48305 107.86116 33940 ft 455 kts 234°
2026-05-05 06:41 18.44261 107.80979 33947 ft 455 kts 234°
2026-05-05 06:42 18.40220 107.75848 33983 ft 456 kts 233°
2026-05-05 06:42 18.38195 107.73282 34353 ft 453 kts 233°
2026-05-05 06:42 18.36186 107.70740 34720 ft 451 kts 233°
2026-05-05 06:42 18.34210 107.68184 35032 ft 448 kts 238°
2026-05-05 06:43 18.32514 107.65448 35333 ft 445 kts 240°
2026-05-05 06:43 18.30858 107.62697 35619 ft 445 kts 240°
2026-05-05 06:43 18.29201 107.59950 35867 ft 445 kts 240°
2026-05-05 06:44 18.25882 107.54460 35939 ft 444 kts 240°
2026-05-05 06:44 18.22566 107.48981 35940 ft 444 kts 240°
2026-05-05 06:45 18.19249 107.43509 35938 ft 444 kts 240°
2026-05-05 06:45 18.15937 107.38034 35941 ft 444 kts 240°
2026-05-05 06:46 18.12624 107.32560 35941 ft 444 kts 240°
2026-05-05 06:46 18.09303 107.27089 35943 ft 444 kts 240°
2026-05-05 06:47 18.05973 107.21617 35944 ft 444 kts 240°
2026-05-05 06:47 18.02664 107.16182 35951 ft 444 kts 240°
2026-05-05 06:48 17.99331 107.10713 35949 ft 444 kts 240°
2026-05-05 06:48 17.96001 107.05248 35945 ft 444 kts 240°
2026-05-05 06:49 17.92661 106.99789 35950 ft 444 kts 240°
2026-05-05 06:49 17.89322 106.94331 35952 ft 444 kts 240°
2026-05-05 06:50 17.85982 106.88874 35949 ft 444 kts 240°
2026-05-05 06:50 17.82669 106.83402 35950 ft 444 kts 240°
2026-05-05 06:51 17.79344 106.77925 35952 ft 444 kts 240°
2026-05-05 06:51 17.76020 106.72459 35952 ft 444 kts 240°
2026-05-05 06:52 17.72714 106.67030 35951 ft 444 kts 240°
2026-05-05 06:52 17.69373 106.61567 35958 ft 445 kts 240°
2026-05-05 06:53 17.66033 106.56108 35961 ft 445 kts 240°
2026-05-05 06:53 17.62688 106.50645 35967 ft 445 kts 239°
2026-05-05 06:54 17.59339 106.45189 35975 ft 445 kts 239°
2026-05-05 06:54 17.55991 106.39741 35975 ft 444 kts 239°
2026-05-05 06:55 17.52638 106.34298 35975 ft 444 kts 239°
2026-05-05 06:55 17.49296 106.28851 35979 ft 444 kts 239°
2026-05-05 06:56 17.45976 106.23446 35980 ft 444 kts 239°
2026-05-05 06:56 17.42635 106.18003 35982 ft 444 kts 239°
2026-05-05 06:57 17.39287 106.12576 35978 ft 444 kts 239°
2026-05-05 06:57 17.35935 106.07152 35974 ft 444 kts 239°
2026-05-05 06:58 17.32624 106.01703 35969 ft 444 kts 240°
2026-05-05 06:58 17.29330 105.96237 35966 ft 444 kts 240°
2026-05-05 06:59 17.26030 105.90777 35963 ft 444 kts 239°
2026-05-05 06:59 17.22729 105.85326 35957 ft 443 kts 239°
2026-05-05 07:00 17.19428 105.79881 35946 ft 443 kts 239°
2026-05-05 07:00 17.16125 105.74441 35943 ft 443 kts 239°
2026-05-05 07:01 17.12815 105.69010 35936 ft 443 kts 239°
2026-05-05 07:01 17.09498 105.63578 35937 ft 443 kts 239°
2026-05-05 07:02 17.06191 105.58153 35933 ft 443 kts 239°
2026-05-05 07:02 17.02884 105.52716 35937 ft 443 kts 239°
2026-05-05 07:03 16.99576 105.47288 35925 ft 443 kts 239°
2026-05-05 07:03 16.96252 105.41853 35930 ft 444 kts 239°
2026-05-05 07:04 16.92934 105.36420 35938 ft 444 kts 239°
2026-05-05 07:04 16.89640 105.31019 35935 ft 444 kts 239°
2026-05-05 07:05 16.86324 105.25590 35932 ft 444 kts 239°
2026-05-05 07:05 16.83000 105.20162 35931 ft 444 kts 238°
2026-05-05 07:06 16.79663 105.14745 35933 ft 444 kts 238°
2026-05-05 07:06 16.76323 105.09315 35938 ft 444 kts 238°
2026-05-05 07:07 16.72989 105.03885 35942 ft 445 kts 238°
2026-05-05 07:07 16.69649 104.98457 35947 ft 445 kts 238°
2026-05-05 07:08 16.66302 104.93032 35950 ft 445 kts 238°
2026-05-05 07:08 16.62960 104.87598 35949 ft 445 kts 238°
2026-05-05 07:09 16.59612 104.82168 35954 ft 445 kts 238°
2026-05-05 07:09 16.56237 104.76802 35948 ft 446 kts 233°
2026-05-05 07:10 16.52145 104.71927 35950 ft 447 kts 230°
2026-05-05 07:10 16.47996 104.67095 35948 ft 448 kts 230°
2026-05-05 07:11 16.43840 104.62255 35948 ft 448 kts 229°
2026-05-05 07:11 16.39681 104.57421 35942 ft 448 kts 229°
2026-05-05 07:12 16.35511 104.52580 35943 ft 449 kts 229°
2026-05-05 07:12 16.31339 104.47738 35941 ft 450 kts 229°
2026-05-05 07:13 16.27158 104.42889 35938 ft 450 kts 229°
2026-05-05 07:13 16.22955 104.38047 35940 ft 451 kts 229°
2026-05-05 07:14 16.18728 104.33230 35933 ft 451 kts 229°
2026-05-05 07:14 16.14500 104.28412 35932 ft 451 kts 229°
2026-05-05 07:15 16.10305 104.23623 35928 ft 451 kts 229°
2026-05-05 07:15 16.06077 104.18796 35929 ft 451 kts 229°
2026-05-05 07:16 16.01874 104.13950 35925 ft 451 kts 229°
2026-05-05 07:16 15.97711 104.09070 35920 ft 451 kts 230°
2026-05-05 07:17 15.93550 104.04184 35916 ft 451 kts 229°
2026-05-05 07:17 15.89400 103.99345 35915 ft 451 kts 229°
2026-05-05 07:18 15.85189 103.94449 35917 ft 451 kts 229°
2026-05-05 07:18 15.81028 103.89617 35915 ft 452 kts 229°
2026-05-05 07:19 15.76839 103.84753 35915 ft 452 kts 229°
2026-05-05 07:19 15.72655 103.79889 35915 ft 452 kts 229°
2026-05-05 07:20 15.68464 103.75025 35917 ft 452 kts 229°
2026-05-05 07:20 15.64275 103.70161 35917 ft 452 kts 229°
2026-05-05 07:21 15.60081 103.65291 35916 ft 452 kts 229°
2026-05-05 07:21 15.55881 103.60426 35913 ft 453 kts 229°
2026-05-05 07:22 15.53044 103.57152 35914 ft 453 kts 229°
2026-05-05 07:22 15.48833 103.52290 35916 ft 453 kts 229°
2026-05-05 07:23 15.44656 103.47461 35915 ft 453 kts 229°
2026-05-05 07:23 15.40445 103.42588 35909 ft 453 kts 229°
2026-05-05 07:24 15.36239 103.37725 35904 ft 453 kts 229°
2026-05-05 07:24 15.32022 103.32864 35901 ft 454 kts 229°
2026-05-05 07:25 15.27805 103.28004 35895 ft 454 kts 229°
2026-05-05 07:25 15.23587 103.23138 35898 ft 454 kts 229°
2026-05-05 07:26 15.19369 103.18276 35893 ft 454 kts 229°
2026-05-05 07:26 15.15145 103.13407 35901 ft 454 kts 229°
2026-05-05 07:27 15.11634 103.09368 35905 ft 454 kts 229°
2026-05-05 07:27 15.07399 103.04505 35913 ft 455 kts 229°
2026-05-05 07:28 15.02746 103.00092 35920 ft 456 kts 214°
2026-05-05 07:28 14.96427 102.96172 35924 ft 456 kts 211°
2026-05-05 07:29 14.91892 102.93376 35912 ft 456 kts 214°
2026-05-05 07:29 14.89408 102.91352 35914 ft 454 kts 225°
2026-05-05 07:29 14.87321 102.88914 35914 ft 453 kts 235°
2026-05-05 07:30 14.84534 102.83108 35908 ft 452 kts 253°
2026-05-05 07:30 14.81694 102.73800 35904 ft 453 kts 252°
2026-05-05 07:31 14.79782 102.67586 35908 ft 454 kts 252°
2026-05-05 07:31 14.77877 102.61367 35908 ft 454 kts 252°
2026-05-05 07:32 14.75968 102.55146 35907 ft 455 kts 252°
2026-05-05 07:32 14.74051 102.48915 35906 ft 455 kts 252°
2026-05-05 07:33 14.72123 102.42679 35905 ft 455 kts 252°
2026-05-05 07:33 14.70191 102.36458 35903 ft 455 kts 252°
2026-05-05 07:34 14.68265 102.30225 35906 ft 456 kts 252°
2026-05-05 07:34 14.66345 102.23990 35908 ft 456 kts 252°
2026-05-05 07:35 14.64427 102.17791 35912 ft 456 kts 252°
2026-05-05 07:35 14.62491 102.11550 35826 ft 457 kts 252°
2026-05-05 07:36 14.61522 102.08425 35489 ft 457 kts 252°
2026-05-05 07:36 14.60551 102.05295 34759 ft 460 kts 252°
2026-05-05 07:36 14.59568 102.02131 33968 ft 466 kts 252°
2026-05-05 07:36 14.58571 101.98923 33003 ft 472 kts 252°
2026-05-05 07:37 14.57563 101.95679 32133 ft 475 kts 252°
2026-05-05 07:37 14.56548 101.92422 31184 ft 480 kts 252°
2026-05-05 07:37 14.55431 101.89151 30278 ft 484 kts 249°
2026-05-05 07:37 14.54191 101.85912 29220 ft 488 kts 248°
2026-05-05 07:38 14.52863 101.82694 28476 ft 485 kts 247°
2026-05-05 07:38 14.51517 101.79524 27746 ft 481 kts 247°
2026-05-05 07:38 14.50187 101.76374 27064 ft 476 kts 247°
2026-05-05 07:38 14.48891 101.73250 26387 ft 472 kts 248°
2026-05-05 07:39 14.47631 101.70145 25722 ft 467 kts 248°
2026-05-05 07:39 14.46396 101.67064 25058 ft 462 kts 248°
2026-05-05 07:39 14.45196 101.64050 24411 ft 458 kts 248°
2026-05-05 07:39 14.43993 101.61022 23768 ft 455 kts 248°
2026-05-05 07:40 14.42793 101.58016 23048 ft 451 kts 248°
2026-05-05 07:40 14.41603 101.55043 22425 ft 445 kts 248°
2026-05-05 07:40 14.40428 101.52116 21820 ft 438 kts 248°
2026-05-05 07:40 14.39265 101.49232 21219 ft 432 kts 248°
2026-05-05 07:41 14.38117 101.46393 20684 ft 426 kts 248°
2026-05-05 07:41 14.36984 101.43589 20131 ft 421 kts 248°
2026-05-05 07:41 14.35870 101.40822 19613 ft 416 kts 248°
2026-05-05 07:41 14.34766 101.38073 19086 ft 412 kts 248°
2026-05-05 07:42 14.33675 101.35349 18554 ft 410 kts 248°
2026-05-05 07:42 14.32586 101.32639 18089 ft 406 kts 248°
2026-05-05 07:42 14.31405 101.30059 17951 ft 391 kts 239°
2026-05-05 07:42 14.29824 101.27838 17721 ft 380 kts 227°
2026-05-05 07:43 14.27906 101.26008 17327 ft 374 kts 219°
2026-05-05 07:43 14.25910 101.24316 16960 ft 370 kts 219°
2026-05-05 07:43 14.23928 101.22633 16591 ft 368 kts 219°
2026-05-05 07:43 14.21962 101.20963 16222 ft 366 kts 219°
2026-05-05 07:44 14.20005 101.19297 15866 ft 364 kts 219°
2026-05-05 07:44 14.18061 101.17641 15490 ft 362 kts 219°
2026-05-05 07:44 14.16128 101.15994 15138 ft 360 kts 219°
2026-05-05 07:44 14.14206 101.14356 14788 ft 358 kts 219°
2026-05-05 07:45 14.12291 101.12722 14432 ft 356 kts 219°
2026-05-05 07:45 14.10403 101.11112 14205 ft 348 kts 219°
2026-05-05 07:45 14.08569 101.09550 14088 ft 336 kts 219°
2026-05-05 07:45 14.06801 101.08083 13971 ft 326 kts 214°
2026-05-05 07:46 14.04834 101.06989 13745 ft 320 kts 200°
2026-05-05 07:46 14.02706 101.06348 13383 ft 318 kts 194°
2026-05-05 07:46 14.00572 101.05768 13048 ft 316 kts 194°
2026-05-05 07:46 13.98449 101.05189 12719 ft 315 kts 194°
2026-05-05 07:47 13.96341 101.04612 12392 ft 313 kts 194°
2026-05-05 07:47 13.94246 101.04038 12075 ft 311 kts 194°
2026-05-05 07:47 13.92162 101.03464 11751 ft 309 kts 194°
2026-05-05 07:47 13.90091 101.02891 11430 ft 307 kts 194°
2026-05-05 07:48 13.88033 101.02321 11147 ft 304 kts 194°
2026-05-05 07:48 13.85991 101.01760 10874 ft 303 kts 194°
2026-05-05 07:48 13.83972 101.01134 10530 ft 304 kts 204°
2026-05-05 07:48 13.82306 100.99811 10176 ft 306 kts 232°
2026-05-05 07:49 13.81441 100.97858 9809 ft 308 kts 261°
2026-05-05 07:49 13.81549 100.95687 9473 ft 305 kts 284°
2026-05-05 07:49 13.82092 100.93572 9159 ft 304 kts 285°
2026-05-05 07:49 13.82704 100.91525 9029 ft 295 kts 296°
2026-05-05 07:50 13.83994 100.89968 8900 ft 284 kts 330°
2026-05-05 07:50 13.85826 100.89414 8778 ft 272 kts
2026-05-05 07:50 13.87644 100.89782 8654 ft 264 kts 16°
2026-05-05 07:50 13.89409 100.90271 8449 ft 261 kts 16°
2026-05-05 07:51 13.91158 100.90758 8224 ft 260 kts 16°
2026-05-05 07:51 13.92906 100.91248 8018 ft 259 kts 17°
2026-05-05 07:51 13.94638 100.91741 7809 ft 258 kts 16°
2026-05-05 07:51 13.96371 100.92222 7554 ft 258 kts 16°
2026-05-05 07:52 13.98105 100.92691 7341 ft 257 kts 15°
2026-05-05 07:52 13.99832 100.93148 7076 ft 256 kts 15°
2026-05-05 07:52 14.01557 100.93597 6835 ft 256 kts 15°
2026-05-05 07:52 14.03276 100.94042 6656 ft 254 kts 15°
2026-05-05 07:53 14.04975 100.94481 6481 ft 249 kts 15°
2026-05-05 07:53 14.06665 100.94862 6365 ft 248 kts
2026-05-05 07:53 14.08367 100.94633 6241 ft 249 kts 339°
2026-05-05 07:53 14.09800 100.93649 6125 ft 250 kts 311°
2026-05-05 07:54 14.10655 100.92106 6006 ft 250 kts 284°
2026-05-05 07:54 14.10751 100.90338 5882 ft 249 kts 258°
2026-05-05 07:54 14.10077 100.88718 5754 ft 247 kts 231°
2026-05-05 07:54 14.08825 100.87524 5629 ft 246 kts 216°
2026-05-05 07:55 14.07467 100.86447 5508 ft 247 kts 216°
2026-05-05 07:55 14.06107 100.85368 5385 ft 246 kts 217°
2026-05-05 07:55 14.04756 100.84291 5267 ft 246 kts 217°
2026-05-05 07:55 14.03406 100.83213 5145 ft 245 kts 217°
2026-05-05 07:56 14.01951 100.82310 5024 ft 244 kts 201°
2026-05-05 07:56 14.00329 100.81821 4908 ft 243 kts 193°
2026-05-05 07:56 13.98691 100.81395 4789 ft 242 kts 193°
2026-05-05 07:56 13.97061 100.80966 4669 ft 242 kts 193°
2026-05-05 07:57 13.95438 100.80538 4387 ft 241 kts 194°
2026-05-05 07:57 13.93803 100.80106 4017 ft 244 kts 193°
2026-05-05 07:57 13.92169 100.79675 3826 ft 238 kts 193°
2026-05-05 07:57 13.90623 100.79267 3761 ft 227 kts 194°
2026-05-05 07:58 13.89106 100.78866 3672 ft 218 kts 193°
2026-05-05 07:58 13.87668 100.78486 3597 ft 208 kts 193°
2026-05-05 07:58 13.86288 100.78122 3337 ft 204 kts 193°
2026-05-05 07:58 13.84941 100.77767 3053 ft 201 kts 193°
2026-05-05 07:59 13.83615 100.77419 2769 ft 193 kts 193°
2026-05-05 07:59 13.82310 100.77075 2516 ft 191 kts 194°
2026-05-05 07:59 13.81040 100.76742 2261 ft 189 kts 193°
2026-05-05 07:59 13.79788 100.76412 2007 ft 184 kts 193°
2026-05-05 08:00 13.78557 100.76088 1753 ft 180 kts 193°
2026-05-05 08:00 13.77359 100.75772 1503 ft 174 kts 194°
2026-05-05 08:00 13.76220 100.75472 1272 ft 165 kts 194°
2026-05-05 08:00 13.75138 100.75187 1052 ft 156 kts 193°
2026-05-05 08:01 13.74119 100.74919 865 ft 148 kts 193°
2026-05-05 08:01 13.73125 100.74659 663 ft 147 kts 193°
2026-05-05 08:01 13.72131 100.74398 455 ft 148 kts 192°
2026-05-05 08:01 13.71129 100.74135 277 ft 149 kts 192°
2026-05-05 08:02 13.70126 100.73865 81 ft 149 kts 192°
2026-05-05 08:02 13.69170 100.73628 13 ft 122 kts 194°
2026-05-05 08:02 13.68525 100.73457 14 ft 71 kts 197°
2026-05-05 08:02 13.68122 100.73353 14 ft 53 kts 196°
2026-05-05 08:03 13.67783 100.73256 16 ft 41 kts 194°
2026-05-05 08:03 13.67657 100.73288 16 ft 17 kts 104°
2026-05-05 08:03 13.67609 100.73395 15 ft 15 kts 115°
2026-05-05 08:03 13.67576 100.73488 15 ft 14 kts 104°
2026-05-05 08:04 13.67551 100.73592 15 ft 16 kts 104°
2026-05-05 08:04 13.67524 100.73714 14 ft 18 kts 92°
2026-05-05 08:04 13.67618 100.73787 14 ft 19 kts 14°
2026-05-05 08:04 13.67754 100.73819 13 ft 21 kts 13°
2026-05-05 08:05 13.67906 100.73858 13 ft 24 kts 14°
2026-05-05 08:05 13.68070 100.73905 14 ft 25 kts 16°
2026-05-05 08:05 13.68248 100.73951 14 ft 27 kts 14°
2026-05-05 08:05 13.68433 100.74000 14 ft 29 kts 13°
2026-05-05 08:06 13.68634 100.74054 14 ft 30 kts 14°
2026-05-05 08:06 13.68843 100.74108 14 ft 32 kts 14°
2026-05-05 08:06 13.69061 100.74166 14 ft 33 kts 14°
2026-05-05 08:06 13.69286 100.74222 13 ft 34 kts 14°
2026-05-05 08:07 13.69474 100.74283 13 ft 23 kts 40°
2026-05-05 08:07 13.69469 100.74418 13 ft 20 kts 99°
2026-05-05 08:07 13.69438 100.74549 13 ft 11 kts 105°
2026-05-05 08:07 13.69382 100.74585 13 ft 8 kts 185°
2026-05-05 08:08 13.69338 100.74574 13 ft 1 kts 195°
2026-05-05 08:08 13.69334 100.74573 13 ft 0 kts 194°